SCP
0 0 0 0 0 0 0 0 0 0 0 0 0 0 0 0 0 0 0 0 0 0 0 0 0 0 0 0 0 0 0 0 0 0 0 0 0 0 0 0 0 0 0 0
0 0 0 0 0 0 0 0 0 0 0 0 0 0 0 0 0 0 0 0 0 0 0 0 0 0 0 0 0 0 0 0 0 0 0 0 0 0 0 0 0 0 0 0
0 0 0 0 0 0 0 0 0 0 0 0 0 0 0 0 0 0 0 0 0 0 0 0 0 0 0 0 0 0 0 0 0 0 0 0 0 0 0 0 0 0 0 0
0 0 0 0 0 0 0 0 0 0 0 0 0 0 0 0 0 0 0 0 0 0 0 0 0 0 0 0 0 0 0 0 0 0 0 0 0 0 0 0 0 0 0 0
0 0 0 0 0 0 0 0 0 0 0 0 0 0 0 0 0 0 0 0 0 0 0 0 0 0 0 0 0 0 0 0 0 0 0 0 0 0 0 0 0 0 0 0
0 0 0 0 0 0 0 0 0 0 0 0 0 0 0 0 0 0 0 0 0 0 0 0 0 0 0 0 0 0 0 0 0 0 0 0 0 0 0 0 0 0 0 0
0 0 0 0 0 0 0 0 0 0 0 0 0 0 0 0 0 0 0 0 0 0 0 0 0 0 0 0 0 0 0 0 0 0 0 0 0 0 0 0 0 0 0 0
0 0 0 0 0 0 0 0 0 0 0 0 0 0 0 0 0 0 0 0 0 0 0 0 0 0 0 0 0 0 0 0 0 0 0 0 0 0 0 0 0 0 0 0
0 0 0 0 0 0 0 0 0 0 0 0 0 0 0 0 0 0 0 0 0 0 0 0 0 0 0 0 0 0 0 0 0 0 0 0 0 0 0 0 0 0 0 0
0 0 0 0 0 0 0 0 0 0 0 0 0 0 0 0 0 0 0 0 0 0 0 0 0 0 0 0 0 0 0 0 0 0 0 0 0 0 0 0 0 0 0 0
0 0 0 0 0 0 0 0 0 0 0 0 0 0 0 0 0 0 0 0 0 0 0 0 0 0 0 0 0 0 0 0 0 0 0 0 0 0 0 0 0 0 0 0
0 0 0 0 0 0 0 0 0 0 0 0 0 0 0 0 0 0 0 0 0 0 0 0 0 0 0 0 0 0 0 0 0 0 0 0 0 0 0 0 0 0 0 0
0 0 0 0 0 0 0 0 0 0 0 0 0 0 0 0 0 0 0 0 0 0 0 0 0 0 0 0 0 0 0 0 0 0 0 0 0 0 0 0 0 0 0 0
0 0 0 0 0 0 0 0 0 0 0 0 0 0 0 0 0 0 0 0 0 0 0 0 0 0 0 0 0 0 -0 -0 0 0 0 0 0 0 0 0 0 0 0 0
0 0 0 0 0 0 0 0 0 0 0 0 0 0 0 0 0 0 0 0 0 0 0 0 0 0 0 0 0 0 0 0 0 0 0 0 0 0 0 0 0 0 0 0
0 0 0 0 0 0 0 0 0 0 0 0 0 0 0 0 0 0 0 0 0 0 0 0 0 0 0 0 0 0 0 0 0 0 0 0 0 0 0 0 0 0 0 0
0 0 0 0 0 0 0 0 0 0 0 0 0 0 0 0 0 0 0 0 0 0 0 0 0 0 0 0 0 0 0 0 0 0 0 0 0 0 0 0 0 0 0 0
0 0 0 0 0 0 0 0 0 0 0 0 0 0 0 0 0 0 0 0 0 0 0 0 0 0 0 0 0 0 0 0 0 0 0 0 0 0 0 0 0 0 0 0
0 0 0 0 0 0 0 0 0 0 0 0 0 0 0 0 0 0 0 0 0 0 0 0 0 0 0 0 0 0 0 0 0 0 0 0 0 0 0 0 0 0 0 0
0 0 0 0 0 0 0 0 0 0 0 0 0 0 0 0 0 0 0 0 0 0 0 0 0 0 0 0 0 0 0 0 0 0 0 0 0 0 0 0 0 0 0 0
0 0 0 0 -0 0 0 0 0 0 0 0 0 0 0 0 0 0 0 0 0 0 0 0 0 0 0 0 0 0 0 0 0 0 0 0 0 0 0 0 0 0 0 0
0 0 0 0 0 0 0 0 0 0 0 0 0 0 0 0 0 0 0 0 0 0 0 0 0 0 0 0 0 0 0 0 0 0 0 0 0 0 0 0 0 0 0 0
0 0 0 0 0 0 0 0 0 0 0 0 0 0 0 0 0 0 0 0 0 0 0 0 0 0 0 0 0 0 0 0 0 0 0 0 0 0 0 -0 0 0 0 -0
0 0 0 0 0 0 0 0 0 0 0 0 0 0 0 0 0 0 0 0 0 0 0 0 0 0 0 0 0 0 0 0 0 0 0 0 0 0 0 0 -0 -0 0 0
0 0 0 0 0 0 0 0 0 0 0 0 0 0 0 0 0 0 0 0 0 0 0 0 0 0 0 0 0 0 0 0 0 0 0 0 0 0 0 0 -0 0 0 0
0 0 0 0 0 0 0 0 0 0 0 0 0 0 0 0 0 0 0 0 0 0 0 0 0 0 0 0 0 0 0 0 0 0 0 0 -0 -0 -0 -0 -0 -0 -0 0
Wind_Speed_500mb
25 13 34 37 25 2 11 11 13 3 5 6 15 17 39 39 33 48 67 62 54 53 56 55 47 46 43 42 42 41 42 43 48 57 62 68 71 70 72 72 70 70 70 68
13 47 18 18 18 15 6 11 9 7 5 5 11 23 25 28 29 49 57 52 54 53 51 51 50 50 53 47 49 48 49 54 56 57 60 67 71 72 71 72 71 72 73 74
37 9 38 21 23 27 31 22 7 3 3 2 11 29 18 16 32 31 44 51 54 50 49 50 52 51 53 56 55 57 62 59 57 57 61 67 74 77 77 74 74 73 73 75
31 47 18 10 31 31 31 16 12 9 6 10 5 23 18 5 14 11 36 47 54 46 47 45 42 42 47 56 63 54 52 50 54 57 64 66 71 77 74 74 76 76 74 72
30 24 36 18 33 31 15 15 28 10 9 4 10 6 7 4 9 12 23 40 37 40 44 46 47 47 46 47 50 48 44 43 45 50 57 64 72 76 72 79 78 76 76 76
53 15 30 28 19 35 14 13 10 6 8 18 35 19 46 19 15 10 18 40 42 40 42 46 49 46 47 48 50 42 37 37 41 48 56 62 65 66 72 77 80 79 79 79
32 15 3 20 14 12 17 21 5 13 17 27 18 15 44 2 5 14 14 30 36 45 43 44 46 40 35 35 37 39 44 44 41 42 42 50 53 56 65 69 77 80 83 84
27 22 38 10 15 18 40 31 12 18 13 18 15 21 21 15 38 73 57 78 71 49 41 34 18 10 15 17 13 2 10 21 29 31 33 35 39 42 49 55 61 69 74 77
21 22 11 12 14 33 23 32 16 10 3 5 10 14 15 16 14 26 36 38 34 29 11 31 28 24 21 15 9 6 7 8 9 12 16 24 29 34 40 45 51 59 64 70
10 13 13 39 18 26 26 20 14 14 14 15 8 9 18 5 15 12 14 17 25 31 34 33 27 21 15 10 8 6 8 10 11 13 14 15 17 23 29 33 39 48 58 67
5 6 7 25 33 37 11 20 13 7 9 13 5 15 16 26 14 14 17 31 41 37 35 29 22 16 12 11 11 11 11 13 15 18 20 20 23 28 32 36 39 43 47 48
18 8 11 25 30 40 44 38 33 13 19 12 2 19 6 14 13 24 35 39 39 35 28 21 19 16 10 7 6 10 14 17 22 25 23 22 23 24 29 37 42 44 47 48
30 11 16 6 3 3 27 37 34 35 4 27 19 18 10 11 13 30 45 46 41 35 30 21 15 11 6 5 5 7 12 16 17 16 22 27 29 30 31 33 34 40 48 49
49 28 14 29 5 13 21 40 36 41 28 26 27 34 25 9 16 23 37 45 39 32 26 22 14 6 3 7 15 19 24 32 28 26 24 24 29 32 36 38 41 43 42 48
34 44 48 45 18 7 22 44 53 47 52 34 42 35 48 25 22 40 57 48 40 34 25 18 14 6 4 9 14 20 21 24 28 30 34 38 38 39 41 43 45 45 48 50
33 31 41 41 46 37 11 37 41 49 48 50 40 24 43 33 43 40 56 52 42 33 28 23 14 10 12 11 12 18 22 28 30 32 34 38 41 42 47 49 50 50 53 53
30 19 30 34 56 50 48 52 43 38 43 51 45 54 30 13 29 46 54 51 49 42 32 22 15 11 10 11 15 20 24 28 30 31 34 37 40 42 45 50 53 57 58 59
21 34 21 20 9 31 23 22 27 40 36 56 39 31 30 23 25 25 39 53 53 41 30 21 16 14 14 14 16 21 25 30 34 37 39 42 43 44 45 48 52 56 60 63
12 8 14 26 27 9 2 14 29 33 50 32 39 56 18 42 36 19 28 48 42 31 23 17 13 12 12 13 16 20 22 25 28 30 32 37 42 46 49 52 54 55 61 63
14 15 13 8 31 30 24 11 14 1 31 13 17 14 23 40 18 11 31 33 30 23 16 11 8 8 11 14 19 23 28 31 34 35 36 39 44 48 50 53 55 58 60 63
15 9 26 32 19 10 3 25 19 23 7 17 21 28 11 13 13 47 35 29 22 16 9 4 5 8 13 17 22 26 30 33 35 37 39 41 46 51 51 52 53 58 62 66
19 14 14 15 14 23 33 9 6 9 26 21 31 30 36 35 35 32 27 18 12 8 4 3 9 11 15 21 24 28 33 37 39 41 43 44 46 50 55 59 58 58 61 65
2 9 1 8 5 17 29 39 27 28 25 32 30 27 28 30 26 21 17 10 6 5 6 10 13 16 21 27 32 35 39 44 46 47 50 52 52 53 56 62 65 66 64 66
8 25 6 11 14 18 37 34 34 30 34 29 28 26 29 26 20 18 14 13 14 16 18 19 20 23 28 31 36 41 45 50 54 56 57 58 60 63 64 66 68 70 69 71
10 20 9 7 17 23 34 37 27 28 27 28 25 27 30 22 23 21 19 20 24 27 27 28 31 33 35 38 41 47 50 53 57 60 64 67 69 70 73 73 74 76 76 71
18 10 6 4 17 12 19 20 25 28 30 27 23 23 27 26 25 25 24 28 31 33 35 35 37 40 40 41 44 49 53 56 60 65 67 71 75 77 78 82 88 82 84 79
Wind_Direction_500mb
179 199 215 199 204 33 157 183 198 232 235 196 238 247 266 264 256 260 264 266 265 263 262 259 251 260 263 266 269 273 280 283 272 265 263 260 262 263 263 262 261 260 258 259
191 227 199 160 187 208 185 207 212 281 277 190 318 273 254 260 248 247 258 260 261 264 264 259 255 254 261 265 270 271 280 279 275 272 270 265 266 268 269 268 268 266 264 261
206 269 176 170 191 200 220 215 164 146 10 314 355 289 241 245 244 246 245 253 254 256 257 259 254 255 257 264 272 278 281 276 269 270 273 268 264 263 266 267 267 267 266 266
222 220 164 174 197 188 221 176 148 175 97 245 123 274 241 182 243 234 249 249 253 252 252 252 253 255 257 267 275 278 278 274 265 261 265 268 268 267 272 273 275 275 276 275
213 174 202 204 212 187 214 143 200 163 165 32 234 286 256 49 285 271 268 259 253 248 246 256 264 273 276 277 283 284 272 268 268 266 265 266 266 270 275 273 273 275 277 278
216 194 183 204 169 184 138 79 77 130 157 240 235 196 274 245 225 214 230 251 254 257 262 267 275 278 278 281 283 277 265 269 266 267 266 267 269 268 270 273 276 277 277 279
216 202 224 162 149 153 163 145 160 214 209 234 167 173 243 168 231 176 228 263 278 283 277 276 283 281 279 275 276 272 269 270 263 265 269 264 270 273 273 275 279 281 282 282
196 202 207 185 184 185 195 184 172 198 202 234 146 218 241 218 239 253 259 263 269 277 282 277 269 163 138 114 107 129 265 260 260 264 267 269 271 274 277 278 281 284 286 288
208 222 156 197 183 166 187 210 182 105 51 70 211 288 297 243 228 248 239 251 273 283 180 135 132 128 118 113 102 74 39 17 329 316 304 284 276 275 277 280 280 281 281 283
220 224 187 197 165 204 183 160 190 206 197 224 237 259 231 204 243 249 216 180 153 139 134 129 123 112 97 79 54 10 333 328 336 332 329 328 320 306 299 296 296 295 292 288
190 225 209 151 200 193 160 191 209 171 197 206 227 246 201 233 211 196 157 159 156 149 136 127 111 91 76 65 54 35 11 343 318 322 324 312 302 297 293 290 291 293 294 298
197 189 197 203 201 204 200 203 196 192 213 217 207 242 239 233 212 176 173 168 155 148 140 133 126 121 112 74 21 26 24 19 10 352 349 348 338 320 303 296 292 288 289 291
186 215 187 170 293 305 217 212 206 223 56 203 215 240 216 193 160 189 175 172 165 164 161 154 155 154 119 61 15 325 327 336 337 335 318 330 336 338 337 328 317 306 297 292
195 230 232 229 229 137 199 214 212 211 223 223 221 242 244 235 203 180 183 179 179 174 168 172 174 203 262 352 357 357 350 338 343 340 338 331 321 322 324 329 332 327 316 305
209 227 234 240 248 210 206 216 215 213 219 217 226 219 245 216 195 186 187 187 178 176 176 176 179 191 318 306 298 317 320 324 331 334 335 335 338 337 332 325 322 321 326 322
211 231 228 239 235 230 216 222 221 218 228 232 240 237 237 231 202 195 195 188 186 182 184 190 196 207 251 275 278 297 309 313 318 326 329 329 330 332 329 329 332 327 322 322
209 219 230 238 234 234 238 229 218 226 227 226 224 230 226 180 191 202 203 201 191 180 184 183 190 212 250 277 301 311 314 315 318 323 325 326 327 329 328 331 332 331 330 328
196 209 225 224 198 222 234 258 211 214 213 233 232 243 229 202 170 191 210 201 177 177 181 184 200 227 256 286 301 304 305 310 320 326 331 330 329 331 331 328 328 329 332 331
170 148 246 237 232 262 238 202 204 197 234 223 216 236 126 136 123 72 142 166 165 174 180 191 212 238 272 296 303 305 312 322 328 334 339 339 338 340 340 340 339 335 329 329
171 234 204 283 224 227 245 119 13 316 249 23 343 329 166 151 180 166 162 160 161 168 178 190 220 265 297 306 316 320 322 326 329 334 336 336 335 337 336 335 335 336 335 334
191 203 224 242 247 264 354 315 316 163 241 44 39 359 224 163 73 139 158 156 165 173 189 218 285 300 314 319 324 321 319 322 328 331 332 333 333 332 332 331 332 331 331 331
172 178 202 216 228 240 343 341 229 56 60 53 56 44 73 93 104 121 134 139 148 149 176 325 337 330 331 330 325 323 321 322 325 326 328 328 329 329 328 328 329 330 330 331
129 349 50 24 35 64 43 71 59 78 80 54 57 53 73 81 80 90 98 94 75 47 9 354 347 345 339 337 330 325 322 321 321 322 322 322 323 324 325 324 325 326 328 329
46 11 75 219 68 57 57 59 62 63 63 62 54 58 72 69 64 59 51 31 15 0 354 350 343 337 335 333 330 325 322 320 319 318 319 318 317 318 319 320 321 320 322 323
338 329 5 98 110 101 55 42 46 49 53 63 57 54 61 57 40 35 23 10 1 354 351 348 342 337 334 331 328 325 321 316 315 316 317 316 315 315 314 314 315 314 314 315
4 1 351 54 14 63 68 45 45 47 38 44 47 44 47 40 27 20 10 2 356 350 346 341 339 332 327 325 324 321 321 320 318 316 316 317 316 315 315 314 310 309 310 309
Wind_Speed_850mb
25 13 34 37 25 2 11 11 13 3 5 6 15 17 39 39 33 48 67 62 54 53 56 55 47 46 43 42 42 41 42 43 48 57 62 68 71 70 72 72 70 70 70 68
13 47 18 18 18 15 6 11 9 7 5 5 11 23 25 28 29 49 57 52 54 53 51 51 50 50 53 47 49 48 49 54 56 57 60 67 71 72 71 72 71 72 73 74
37 9 38 21 23 27 31 22 7 3 3 2 11 29 18 16 32 31 44 51 54 50 49 50 52 51 53 56 55 57 62 59 57 57 61 67 74 77 77 74 74 73 73 75
31 47 18 10 31 31 31 16 12 9 6 10 5 23 18 5 14 11 36 47 54 46 47 45 42 42 47 56 63 54 52 50 54 57 64 66 71 77 74 74 76 76 74 72
30 24 36 18 33 31 15 15 28 10 9 4 10 6 7 4 9 12 23 40 37 40 44 46 47 47 46 47 50 48 44 43 45 50 57 64 72 76 72 79 78 76 76 76
53 15 30 28 19 35 14 13 10 6 8 18 35 19 46 19 15 10 18 40 42 40 42 46 49 46 47 48 50 42 37 37 41 48 56 62 65 66 72 77 80 79 79 79
32 15 3 20 14 12 17 21 5 13 17 27 18 15 44 2 5 14 14 30 36 45 43 44 46 40 35 35 37 39 44 44 41 42 42 50 53 56 65 69 77 80 83 84
27 22 38 10 15 18 40 31 12 18 13 18 15 21 21 15 38 73 57 78 71 49 41 34 18 10 15 17 13 2 10 21 29 31 33 35 39 42 49 55 61 69 74 77
21 22 11 12 14 33 23 32 16 10 3 5 10 14 15 16 14 26 36 38 34 29 11 31 28 24 21 15 9 6 7 8 9 12 16 24 29 34 40 45 51 59 64 70
10 13 13 39 18 26 26 20 14 14 14 15 8 9 18 5 15 12 14 17 25 31 34 33 27 21 15 10 8 6 8 10 11 13 14 15 17 23 29 33 39 48 58 67
5 6 7 25 33 37 11 20 13 7 9 13 5 15 16 26 14 14 17 31 41 37 35 29 22 16 12 11 11 11 11 13 15 18 20 20 23 28 32 36 39 43 47 48
18 8 11 25 30 40 44 38 33 13 19 12 2 19 6 14 13 24 35 39 39 35 28 21 19 16 10 7 6 10 14 17 22 25 23 22 23 24 29 37 42 44 47 48
30 11 16 6 3 3 27 37 34 35 4 27 19 18 10 11 13 30 45 46 41 35 30 21 15 11 6 5 5 7 12 16 17 16 22 27 29 30 31 33 34 40 48 49
49 28 14 29 5 13 21 40 36 41 28 26 27 34 25 9 16 23 37 45 39 32 26 22 14 6 3 7 15 19 24 32 28 26 24 24 29 32 36 38 41 43 42 48
34 44 48 45 18 7 22 44 53 47 52 34 42 35 48 25 22 40 57 48 40 34 25 18 14 6 4 9 14 20 21 24 28 30 34 38 38 39 41 43 45 45 48 50
33 31 41 41 46 37 11 37 41 49 48 50 40 24 43 33 43 40 56 52 42 33 28 23 14 10 12 11 12 18 22 28 30 32 34 38 41 42 47 49 50 50 53 53
30 19 30 34 56 50 48 52 43 38 43 51 45 54 30 13 29 46 54 51 49 42 32 22 15 11 10 11 15 20 24 28 30 31 34 37 40 42 45 50 53 57 58 59
21 34 21 20 9 31 23 22 27 40 36 56 39 31 30 23 25 25 39 53 53 41 30 21 16 14 14 14 16 21 25 30 34 37 39 42 43 44 45 48 52 56 60 63
12 8 14 26 27 9 2 14 29 33 50 32 39 56 18 42 36 19 28 48 42 31 23 17 13 12 12 13 16 20 22 25 28 30 32 37 42 46 49 52 54 55 61 63
14 15 13 8 31 30 24 11 14 1 31 13 17 14 23 40 18 11 31 33 30 23 16 11 8 8 11 14 19 23 28 31 34 35 36 39 44 48 50 53 55 58 60 63
15 9 26 32 19 10 3 25 19 23 7 17 21 28 11 13 13 47 35 29 22 16 9 4 5 8 13 17 22 26 30 33 35 37 39 41 46 51 51 52 53 58 62 66
19 14 14 15 14 23 33 9 6 9 26 21 31 30 36 35 35 32 27 18 12 8 4 3 9 11 15 21 24 28 33 37 39 41 43 44 46 50 55 59 58 58 61 65
2 9 1 8 5 17 29 39 27 28 25 32 30 27 28 30 26 21 17 10 6 5 6 10 13 16 21 27 32 35 39 44 46 47 50 52 52 53 56 62 65 66 64 66
8 25 6 11 14 18 37 34 34 30 34 29 28 26 29 26 20 18 14 13 14 16 18 19 20 23 28 31 36 41 45 50 54 56 57 58 60 63 64 66 68 70 69 71
10 20 9 7 17 23 34 37 27 28 27 28 25 27 30 22 23 21 19 20 24 27 27 28 31 33 35 38 41 47 50 53 57 60 64 67 69 70 73 73 74 76 76 71
18 10 6 4 17 12 19 20 25 28 30 27 23 23 27 26 25 25 24 28 31 33 35 35 37 40 40 41 44 49 53 56 60 65 67 71 75 77 78 82 88 82 84 79
Wind_Direction_850mb
179 199 215 199 204 33 157 183 198 232 235 196 238 247 266 264 256 260 264 266 265 263 262 259 251 260 263 266 269 273 280 283 272 265 263 260 262 263 263 262 261 260 258 259
191 227 199 160 187 208 185 207 212 281 277 190 318 273 254 260 248 247 258 260 261 264 264 259 255 254 261 265 270 271 280 279 275 272 270 265 266 268 269 268 268 266 264 261
206 269 176 170 191 200 220 215 164 146 10 314 355 289 241 245 244 246 245 253 254 256 257 259 254 255 257 264 272 278 281 276 269 270 273 268 264 263 266 267 267 267 266 266
222 220 164 174 197 188 221 176 148 175 97 245 123 274 241 182 243 234 249 249 253 252 252 252 253 255 257 267 275 278 278 274 265 261 265 268 268 267 272 273 275 275 276 275
213 174 202 204 212 187 214 143 200 163 165 32 234 286 256 49 285 271 268 259 253 248 246 256 264 273 276 277 283 284 272 268 268 266 265 266 266 270 275 273 273 275 277 278
216 194 183 204 169 184 138 79 77 130 157 240 235 196 274 245 225 214 230 251 254 257 262 267 275 278 278 281 283 277 265 269 266 267 266 267 269 268 270 273 276 277 277 279
216 202 224 162 149 153 163 145 160 214 209 234 167 173 243 168 231 176 228 263 278 283 277 276 283 281 279 275 276 272 269 270 263 265 269 264 270 273 273 275 279 281 282 282
196 202 207 185 184 185 195 184 172 198 202 234 146 218 241 218 239 253 259 263 269 277 282 277 269 163 138 114 107 129 265 260 260 264 267 269 271 274 277 278 281 284 286 288
208 222 156 197 183 166 187 210 182 105 51 70 211 288 297 243 228 248 239 251 273 283 180 135 132 128 118 113 102 74 39 17 329 316 304 284 276 275 277 280 280 281 281 283
220 224 187 197 165 204 183 160 190 206 197 224 237 259 231 204 243 249 216 180 153 139 134 129 123 112 97 79 54 10 333 328 336 332 329 328 320 306 299 296 296 295 292 288
190 225 209 151 200 193 160 191 209 171 197 206 227 246 201 233 211 196 157 159 156 149 136 127 111 91 76 65 54 35 11 343 318 322 324 312 302 297 293 290 291 293 294 298
197 189 197 203 201 204 200 203 196 192 213 217 207 242 239 233 212 176 173 168 155 148 140 133 126 121 112 74 21 26 24 19 10 352 349 348 338 320 303 296 292 288 289 291
186 215 187 170 293 305 217 212 206 223 56 203 215 240 216 193 160 189 175 172 165 164 161 154 155 154 119 61 15 325 327 336 337 335 318 330 336 338 337 328 317 306 297 292
195 230 232 229 229 137 199 214 212 211 223 223 221 242 244 235 203 180 183 179 179 174 168 172 174 203 262 352 357 357 350 338 343 340 338 331 321 322 324 329 332 327 316 305
209 227 234 240 248 210 206 216 215 213 219 217 226 219 245 216 195 186 187 187 178 176 176 176 179 191 318 306 298 317 320 324 331 334 335 335 338 337 332 325 322 321 326 322
211 231 228 239 235 230 216 222 221 218 228 232 240 237 237 231 202 195 195 188 186 182 184 190 196 207 251 275 278 297 309 313 318 326 329 329 330 332 329 329 332 327 322 322
209 219 230 238 234 234 238 229 218 226 227 226 224 230 226 180 191 202 203 201 191 180 184 183 190 212 250 277 301 311 314 315 318 323 325 326 327 329 328 331 332 331 330 328
196 209 225 224 198 222 234 258 211 214 213 233 232 243 229 202 170 191 210 201 177 177 181 184 200 227 256 286 301 304 305 310 320 326 331 330 329 331 331 328 328 329 332 331
170 148 246 237 232 262 238 202 204 197 234 223 216 236 126 136 123 72 142 166 165 174 180 191 212 238 272 296 303 305 312 322 328 334 339 339 338 340 340 340 339 335 329 329
171 234 204 283 224 227 245 119 13 316 249 23 343 329 166 151 180 166 162 160 161 168 178 190 220 265 297 306 316 320 322 326 329 334 336 336 335 337 336 335 335 336 335 334
191 203 224 242 247 264 354 315 316 163 241 44 39 359 224 163 73 139 158 156 165 173 189 218 285 300 314 319 324 321 319 322 328 331 332 333 333 332 332 331 332 331 331 331
172 178 202 216 228 240 343 341 229 56 60 53 56 44 73 93 104 121 134 139 148 149 176 325 337 330 331 330 325 323 321 322 325 326 328 328 329 329 328 328 329 330 330 331
129 349 50 24 35 64 43 71 59 78 80 54 57 53 73 81 80 90 98 94 75 47 9 354 347 345 339 337 330 325 322 321 321 322 322 322 323 324 325 324 325 326 328 329
46 11 75 219 68 57 57 59 62 63 63 62 54 58 72 69 64 59 51 31 15 0 354 350 343 337 335 333 330 325 322 320 319 318 319 318 317 318 319 320 321 320 322 323
338 329 5 98 110 101 55 42 46 49 53 63 57 54 61 57 40 35 23 10 1 354 351 348 342 337 334 331 328 325 321 316 315 316 317 316 315 315 314 314 315 314 314 315
4 1 351 54 14 63 68 45 45 47 38 44 47 44 47 40 27 20 10 2 356 350 346 341 339 332 327 325 324 321 321 320 318 316 316 317 316 315 315 314 310 309 310 309